[[{"header":{"parameterUnit":"m.s-1","parameterCategory":2,"la1":30.2991,"la2":30.254,"lo1":-89.0895,"lo2":-89.0444,"dy":0.0017,"dx":0.0017,"nx":28,"ny":28,"refTime":"2025-03-09T09:00:00:Z","depth":"0","parameterNumber":2,"parameterNumberName":"U-component_of_CURRENTS"},"data":[0,0,0,0,0,0,0,0,0,0,0,0,0,0,0,0,0,0,0,0,0,0,0,0,0,0,0,0,0,0,0,0,0,0,0,0,0,0,0,0,0,0,0,0,0,0,0,0,0,0,0,0,0,0,0,0,0,0,0.3485,0.3485,0,0.3501,0.3501,0.3501,0.3479,0.3479,0.3478,0.3478,0.3452,0.3452,0.3452,0,0,0,0,0,0,0,0,0,0,0,0,0,0.3452,0.3452,0.3485,0.3485,0.3486,0.3501,0.3501,0.3501,0.3479,0.3479,0.3478,0.3477,0.3452,0.3452,0.3452,0,0,0,0,0,0,0,0,0,0,0,0,0,0.3464,0.3452,0.3485,0.3478,0.3478,0.3501,0.3501,0.3501,0.348,0.3479,0.3478,0.3477,0.3452,0.3452,0.3452,0.3467,0,0,0.3451,0.3451,0,0,0,0,0,0,0,0,0.3464,0.3465,0.3479,0.3479,0.3479,0.349,0.348,0.3489,0.348,0.3476,0.3478,0.3477,0.3463,0.3462,0.3464,0.3466,0.3465,0.3451,0.3451,0.3451,0.3451,0,0,0,0,0,0,0,0.3463,0.3465,0.3489,0.348,0.3479,0.3481,0.3481,0.3482,0.3471,0.3477,0.3476,0.3482,0.3462,0.3464,0.3463,0.3464,0.3451,0.3451,0.3451,0.3451,0.3512,0.3513,0,0,0,0,0,0,0.3466,0.3464,0.3488,0.3489,0.3472,0.3482,0.3483,0.3485,0.3472,0.3471,0.3483,0.3481,0.3465,0.3463,0.3462,0.3503,0.3451,0.3451,0.345,0.351,0.3512,0.3514,0,0,0,0,0,0,0.3465,0.3468,0.3488,0.3479,0.3482,0.3484,0.3486,0.3486,0.3492,0.3478,0.3475,0.3491,0.3464,0.3462,0.3476,0.35,0.345,0.345,0.3508,0.3511,0.3513,0.3569,0,0,0,0,0,0,0.3464,0.3467,0.3473,0.3479,0.3483,0.3508,0.3488,0.3487,0.3498,0.3496,0.3484,0.348,0.3463,0.3477,0.3476,0.3499,0.345,0.3506,0.3509,0.3512,0.3565,0.3573,0.358,0,0,0,0,0,0.3463,0.3472,0.3473,0.3476,0.3489,0.351,0.3512,0.3508,0.35,0.3509,0.3505,0.3481,0.3497,0.3478,0.3476,0.35,0.3504,0.3508,0.3512,0.3562,0.3572,0.358,0,0,0,0,0,0,0.3459,0.3472,0.3472,0.3484,0.3501,0.3507,0.3517,0.3517,0.3522,0.352,0.35,0.3497,0.3523,0.3508,0.3487,0.3531,0.3498,0.3502,0.3537,0.3546,0.3554,0.3568,0.345,0,0,0,0,0,0.3463,0.3472,0.3488,0.3499,0.3508,0.3515,0.3524,0.3526,0.3532,0.3533,0.3525,0.3525,0.3539,0.3538,0.3545,0.3563,0.3572,0.3581,0.3588,0.3595,0.3608,0.3647,0.366,0.3527,0.3527,0.3527,0,0,0.3464,0.3474,0.3478,0.3499,0.3509,0.3533,0.3518,0.3538,0.3559,0.353,0.3551,0.3553,0.3553,0.3579,0.3588,0.3566,0.364,0.36,0.3605,0.3615,0.3653,0.3666,0.3677,0.353,0.3529,0.3529,0,0,0.3472,0.3481,0.3493,0.3511,0.3536,0.3549,0.3559,0.3574,0.3581,0.3607,0.3599,0.362,0.3624,0.3637,0.3642,0.3699,0.3685,0.3698,0.374,0.3778,0.3789,0.3799,0.3835,0.3847,0.3695,0.3695,0.3695,0,0.3475,0.349,0.3501,0.3523,0.3541,0.356,0.3583,0.3604,0.3621,0.3637,0.362,0.3663,0.3657,0.3705,0.3724,0.3717,0.3734,0.37,0.3788,0.3798,0.3807,0.3841,0.3854,0.3698,0.3697,0.3697,0.3697,0,0.3491,0.351,0.3522,0.3556,0.3579,0.3605,0.3637,0.3663,0.3675,0.3693,0.374,0.3744,0.3768,0.3774,0.3764,0.383,0.3821,0.3797,0.3761,0.3823,0.3855,0.3868,0.3702,0.3701,0.37,0.37,0,0,0.3481,0.3525,0.3528,0.3544,0.3599,0.3614,0.3669,0.3717,0.376,0.3778,0.383,0.3856,0.3861,0.387,0.3868,0.3899,0.3976,0.3877,0.3877,0.3908,0.4066,0.4058,0.407,0.3965,0.3967,0.3969,0.4065,0,0.3492,0.3524,0.3552,0.3593,0.3614,0.3657,0.3707,0.3755,0.3803,0.3861,0.3884,0.3934,0.3898,0.3922,0.3948,0.3981,0.4011,0.3953,0.4005,0.4007,0.3988,0.4085,0.4046,0.4128,0.4077,0.4079,0.408,0,0.3495,0.3519,0.3551,0.3607,0.3621,0.3653,0.3737,0.3789,0.3886,0.3927,0.3984,0.401,0.4076,0.4031,0.4108,0.4073,0.4076,0.4088,0.4092,0.4074,0.4023,0.4058,0.4153,0.4128,0.4099,0.4098,0.4096,0,0.3462,0.3516,0.3537,0.3555,0.3627,0.3652,0.3702,0.38,0.3863,0.3982,0.4044,0.4111,0.4162,0.4184,0.4204,0.4166,0.4287,0.4232,0.4227,0.4226,0.4199,0.4192,0.4273,0.4284,0.4284,0.4284,0.4283,0,0.3456,0.3471,0.3518,0.3528,0.3568,0.3629,0.37,0.3774,0.39,0.3979,0.407,0.415,0.4204,0.4269,0.4259,0.4301,0.433,0.4268,0.4263,0.4218,0.4212,0.4191,0.4169,0.4287,0.4286,0.4286,0.4285,0,0.341,0.3443,0.3466,0.3528,0.3548,0.3575,0.3685,0.3744,0.3882,0.3997,0.4041,0.4207,0.4309,0.4354,0.442,0.4383,0.4335,0.4408,0.4356,0.4343,0.4295,0.4276,0.4122,0.4008,0.443,0.443,0.4431,0,0.3388,0.3394,0.3442,0.345,0.3473,0.3528,0.3569,0.3712,0.3789,0.4015,0.4064,0.4235,0.4344,0.4476,0.4474,0.4502,0.4363,0.4446,0.4361,0.4324,0.43,0.4066,0.3963,0.4352,0.4352,0.4352,0.4352,0,0.3346,0.3357,0.3371,0.3391,0.3416,0.3453,0.3529,0.3589,0.3762,0.3891,0.4066,0.4193,0.4379,0.444,0.4506,0.4496,0.4309,0.4441,0.4424,0.4281,0.4011,0.3889,0.4253,0.435,0.435,0.435,0.435,0.4351,0.3302,0.3294,0.3307,0.3315,0.3339,0.3354,0.3354,0.3468,0.3584,0.375,0.3956,0.4126,0.4375,0.4498,0.4442,0.4422,0.4288,0.4355,0.4349,0.4121,0.3969,0.4334,0.4404,0.4405,0.4405,0.4405,0.4406,0,0.3232,0.3225,0.3231,0.322,0.3195,0.3248,0.33,0.3295,0.3372,0.3615,0.3781,0.4083,0.4251,0.4383,0.4496,0.4381,0.4115,0.4298,0.3999,0.3909,0.4299,0.426,0.4277,0.4277,0.4277,0.4277,0.4277,0.4277,0.3194,0.3157,0.3153,0.3074,0.3061,0.2998,0.2996,0.3028,0.3164,0.3357,0.3545,0.3754,0.4199,0.4544,0.455,0.4416,0.409,0.394,0.3848,0.4228,0.4231,0.4235,0.4195,0.4198,0.4198,0.3314,0.3308,0.3304]},{"header":{"parameterUnit":"m.s-1","parameterCategory":2,"la1":30.2991,"la2":30.254,"lo1":-89.0895,"lo2":-89.0444,"dy":0.0017,"dx":0.0017,"nx":28,"ny":28,"refTime":"2025-03-09T09:00:00:Z","depth":"0","parameterNumber":3,"parameterNumberName":"V-component_of_CURRENTS"},"data":[0,0,0,0,0,0,0,0,0,0,0,0,0,0,0,0,0,0,0,0,0,0,0,0,0,0,0,0,0,0,0,0,0,0,0,0,0,0,0,0,0,0,0,0,0,0,0,0,0,0,0,0,0,0,0,0,0,0,0.0287,0.0287,0,0.0239,0.0238,0.0237,0.0196,0.0195,0.0195,0.0195,0.0123,0.0122,0.012,0,0,0,0,0,0,0,0,0,0,0,0,0,0.0268,0.0269,0.0287,0.0287,0.0286,0.0239,0.0238,0.0237,0.0196,0.0195,0.0195,0.0195,0.0124,0.0122,0.012,0,0,0,0,0,0,0,0,0,0,0,0,0,0.0252,0.0269,0.0287,0.0261,0.0259,0.0239,0.0238,0.0237,0.0196,0.0195,0.0195,0.0195,0.0125,0.0122,0.012,0.0113,0,0,0.0112,0.0111,0,0,0,0,0,0,0,0,0.0253,0.0253,0.0266,0.0263,0.026,0.0225,0.0205,0.0195,0.0196,0.0218,0.0195,0.0194,0.0157,0.0152,0.0141,0.011,0.0107,0.0112,0.0111,0.0109,0.0109,0,0,0,0,0,0,0,0.0254,0.0254,0.0266,0.0265,0.0262,0.0227,0.0224,0.0203,0.0188,0.0216,0.0213,0.0211,0.0155,0.0143,0.0139,0.0106,0.0112,0.011,0.0108,0.0107,0.0061,0.0062,0,0,0,0,0,0,0.0269,0.0256,0.0268,0.0265,0.0258,0.0228,0.0225,0.0235,0.0189,0.0182,0.0211,0.0209,0.0148,0.0142,0.0136,0.0142,0.0109,0.0107,0.0106,0.0061,0.0061,0.0062,0,0,0,0,0,0,0.0269,0.0271,0.027,0.026,0.0257,0.0229,0.024,0.0234,0.0227,0.0186,0.0179,0.0211,0.0147,0.014,0.0126,0.0138,0.0106,0.0104,0.0061,0.0061,0.0062,0.0143,0,0,0,0,0,0,0.0269,0.0272,0.0281,0.0261,0.0259,0.0272,0.0241,0.0234,0.0227,0.0224,0.0183,0.0176,0.0146,0.013,0.0123,0.0134,0.0102,0.0061,0.0061,0.0061,0.014,0.0147,0.0152,0,0,0,0,0,0.0269,0.0292,0.0282,0.0283,0.0274,0.0273,0.0268,0.0244,0.0228,0.0234,0.0204,0.0177,0.0127,0.0128,0.0121,0.0131,0.006,0.0061,0.0061,0.0138,0.0145,0.0152,0,0,0,0,0,0,0.0287,0.0289,0.0278,0.03,0.0291,0.0267,0.0268,0.0252,0.0232,0.0226,0.0185,0.0176,0.0166,0.0137,0.0139,0.0117,0.0088,0.0087,0.0148,0.0155,0.0161,0.0184,0.01,0,0,0,0,0,0.0296,0.0314,0.0304,0.0319,0.0319,0.0293,0.0288,0.0274,0.0255,0.0246,0.0218,0.0185,0.0162,0.015,0.0124,0.0117,0.0079,0.0116,0.0122,0.0127,0.014,0.009,0.0092,0.0064,0.0064,0.0064,0,0,0.0306,0.0309,0.0318,0.0324,0.0312,0.033,0.0289,0.029,0.0302,0.0241,0.0245,0.0206,0.0164,0.0155,0.0148,0.0134,0.0114,0.0128,0.0133,0.0143,0.0091,0.0093,0.0096,0.0064,0.0064,0.0064,0,0,0.0341,0.0339,0.0367,0.037,0.0365,0.0354,0.036,0.0342,0.033,0.0326,0.0285,0.0257,0.0223,0.0196,0.0178,0.0199,0.0146,0.0186,0.0237,0.0188,0.019,0.0192,0.0146,0.0142,0.019,0.019,0.019,0,0.035,0.0391,0.0372,0.0402,0.0415,0.0373,0.041,0.0393,0.0371,0.0369,0.0339,0.0283,0.0244,0.0235,0.0239,0.0214,0.0177,0.0218,0.0197,0.0197,0.0198,0.015,0.0145,0.0194,0.0193,0.0193,0.0193,0,0.0411,0.0442,0.0459,0.0487,0.0495,0.0518,0.0502,0.0499,0.0474,0.0455,0.0433,0.0369,0.0339,0.0315,0.0284,0.027,0.0241,0.021,0.0184,0.0206,0.0154,0.0147,0.02,0.0198,0.0197,0.0196,0,0,0.0442,0.0494,0.05,0.0536,0.0547,0.0566,0.0581,0.059,0.0609,0.0553,0.0566,0.0501,0.0456,0.0432,0.0377,0.033,0.0292,0.0279,0.0274,0.0243,0.0185,0.016,0.0149,0.0257,0.0257,0.0256,0.0148,0,0.0497,0.0581,0.0586,0.0661,0.0707,0.0685,0.0709,0.0705,0.0685,0.0682,0.0597,0.0583,0.0504,0.049,0.0429,0.0333,0.028,0.0325,0.0162,0.0157,0.0139,0.0143,0.0174,0.008,0.0142,0.0141,0.014,0,0.0558,0.0613,0.0702,0.0769,0.0785,0.0814,0.0853,0.0872,0.0847,0.083,0.0785,0.0717,0.0646,0.057,0.0408,0.044,0.0326,0.0235,0.0228,0.0175,0.012,0.0067,0.0066,-0.0142,0.013,0.0131,0.0131,0,0.0608,0.0692,0.0771,0.0796,0.0858,0.0885,0.0911,0.0915,0.0959,0.0926,0.0943,0.0829,0.0787,0.0625,0.0433,0.0422,0.0246,0.0203,0.0068,0.0065,0.0045,0.0041,-0.0167,0.0086,0.0086,0.0086,0.0087,0,0.0675,0.0736,0.0802,0.0848,0.0945,0.0955,0.1045,0.1048,0.1078,0.1144,0.1027,0.1043,0.0798,0.0665,0.0473,0.0257,0.0271,0.0082,0.0037,0.0073,0.0073,-0.0146,-0.0278,0.0082,0.0083,0.0084,0.0085,0,0.0721,0.0761,0.0861,0.0941,0.0975,0.1043,0.1154,0.1223,0.1227,0.1306,0.1304,0.1206,0.1035,0.0776,0.0514,0.0327,-0.0023,0.0028,0.0087,0.0051,-0.0264,-0.0391,-0.0665,-0.0792,-0.0135,-0.0136,-0.0137,0,0.0753,0.081,0.0933,0.1006,0.1048,0.1156,0.1243,0.1296,0.139,0.1418,0.1473,0.1327,0.1275,0.0875,0.05,0.0151,-0.007,-0.0058,-0.008,-0.0277,-0.0452,-0.0548,-0.0642,-0.0081,-0.0081,-0.0081,-0.0082,0,0.0817,0.0854,0.0941,0.1097,0.1202,0.1343,0.147,0.1572,0.1641,0.1713,0.178,0.1735,0.1343,0.1019,0.0515,0.0252,-0.022,-0.0077,-0.03,-0.0441,-0.0542,-0.0684,-0.002,-0.0085,-0.0085,-0.0085,-0.0085,-0.0084,0.0858,0.0931,0.1047,0.1198,0.1332,0.1513,0.1656,0.1807,0.1979,0.2132,0.2047,0.208,0.1557,0.0888,0.0454,-0.0248,-0.0278,-0.0422,-0.0563,-0.0645,-0.0762,-0.0103,-0.0208,-0.0208,-0.0208,-0.0209,-0.0209,0,0.0916,0.1007,0.1145,0.1331,0.1496,0.1559,0.1803,0.1977,0.2213,0.2374,0.2458,0.229,0.1608,0.0908,-0.0052,-0.0584,-0.0816,-0.0891,-0.1023,-0.11,-0.0519,-0.0508,-0.0659,-0.0659,-0.0658,-0.0658,-0.0658,-0.0658,0.0948,0.1085,0.1165,0.1438,0.1579,0.1835,0.1993,0.2254,0.2462,0.2751,0.286,0.2885,0.2432,0.0512,-0.0725,-0.1032,-0.1426,-0.1533,-0.1749,-0.134,-0.1306,-0.1274,-0.1294,-0.1607,-0.1608,-0.2244,-0.2251,-0.2256]}],[{"header":{"parameterUnit":"m.s-1","parameterCategory":2,"la1":30.2991,"la2":30.254,"lo1":-89.0895,"lo2":-89.0444,"dy":0.0017,"dx":0.0017,"nx":28,"ny":28,"refTime":"2025-03-09T09:00:00:Z","depth":"2","parameterNumber":2,"parameterNumberName":"U-component_of_CURRENTS"},"data":[0,0,0,0,0,0,0,0,0,0,0,0,0,0,0,0,0,0,0,0,0,0,0,0,0,0,0,0,0,0,0,0,0,0,0,0,0,0,0,0,0,0,0,0,0,0,0,0,0,0,0,0,0,0,0,0,0,0,0.3355,0.3355,0,0.3372,0.3372,0.3372,0.3355,0.3355,0.3354,0.3354,0.3333,0.3333,0.3333,0,0,0,0,0,0,0,0,0,0,0,0,0,0.3321,0.3322,0.3355,0.3355,0.3356,0.3372,0.3372,0.3372,0.3355,0.3355,0.3354,0.3353,0.3333,0.3333,0.3333,0,0,0,0,0,0,0,0,0,0,0,0,0,0.3334,0.3322,0.3355,0.3351,0.3351,0.3372,0.3372,0.3372,0.3355,0.3355,0.3354,0.3353,0.3333,0.3333,0.3333,0.3345,0,0,0.3332,0.3332,0,0,0,0,0,0,0,0,0.3334,0.3335,0.3351,0.3351,0.3352,0.3363,0.3353,0.3362,0.3355,0.3351,0.3354,0.3353,0.3342,0.3341,0.3342,0.3344,0.3343,0.3332,0.3332,0.3332,0.3332,0,0,0,0,0,0,0,0.3333,0.3335,0.3359,0.3352,0.3352,0.3354,0.3354,0.3355,0.3347,0.3351,0.3351,0.3357,0.3341,0.3343,0.3342,0.3342,0.3332,0.3332,0.3332,0.3332,0.3393,0.3395,0,0,0,0,0,0,0.3336,0.3334,0.3359,0.336,0.3344,0.3355,0.3356,0.3358,0.3348,0.3347,0.3358,0.3356,0.3343,0.3342,0.3341,0.3384,0.3332,0.3332,0.3332,0.3392,0.3394,0.3396,0,0,0,0,0,0,0.3335,0.3338,0.3358,0.3349,0.3352,0.3356,0.3359,0.3359,0.3368,0.3354,0.3351,0.3368,0.3343,0.3341,0.3357,0.3382,0.3332,0.3331,0.339,0.3392,0.3395,0.3452,0,0,0,0,0,0,0.3334,0.3337,0.3344,0.335,0.3353,0.3379,0.336,0.336,0.3373,0.3372,0.3362,0.3359,0.3342,0.3357,0.3356,0.3381,0.3331,0.3387,0.3391,0.3394,0.3448,0.3456,0.3463,0,0,0,0,0,0.3333,0.3343,0.3344,0.3348,0.3361,0.338,0.3382,0.3381,0.3375,0.3385,0.3383,0.3359,0.3378,0.3358,0.3357,0.3382,0.3386,0.339,0.3394,0.3444,0.3454,0.3463,0,0,0,0,0,0,0.333,0.3342,0.3344,0.3357,0.3373,0.3378,0.339,0.3391,0.3398,0.3397,0.3378,0.3376,0.3403,0.3389,0.3368,0.3412,0.338,0.3384,0.3419,0.3428,0.3436,0.345,0.3331,0,0,0,0,0,0.3335,0.3345,0.3359,0.3371,0.3381,0.3389,0.3398,0.3401,0.3408,0.341,0.3403,0.3405,0.3419,0.3419,0.3426,0.3445,0.3453,0.3463,0.3471,0.3477,0.349,0.3528,0.354,0.3409,0.3409,0.3409,0,0,0.3336,0.3346,0.3351,0.3372,0.3382,0.3406,0.3392,0.3414,0.3435,0.3407,0.343,0.3433,0.3433,0.3459,0.3469,0.3447,0.3522,0.3482,0.3487,0.3497,0.3534,0.3546,0.3558,0.3411,0.3411,0.3411,0,0,0.3346,0.3356,0.3368,0.3386,0.3412,0.3424,0.3435,0.345,0.3459,0.3485,0.3479,0.3501,0.3506,0.3518,0.3523,0.358,0.3567,0.358,0.3623,0.366,0.3671,0.368,0.3715,0.3728,0.3577,0.3577,0.3577,0,0.335,0.3365,0.3377,0.3398,0.3416,0.3436,0.3459,0.3479,0.3498,0.3514,0.35,0.3544,0.3539,0.3586,0.3606,0.3598,0.3615,0.3583,0.3669,0.3679,0.3688,0.3722,0.3735,0.358,0.358,0.358,0.3579,0,0.3366,0.3386,0.3398,0.3432,0.3454,0.3481,0.3512,0.3539,0.3553,0.3571,0.3619,0.3624,0.3649,0.3655,0.3646,0.3712,0.3703,0.3679,0.3643,0.3705,0.3736,0.3749,0.3585,0.3584,0.3583,0.3582,0,0,0.3359,0.3401,0.3406,0.3422,0.3475,0.349,0.3544,0.3592,0.3636,0.3655,0.3708,0.3735,0.3742,0.3751,0.3749,0.3779,0.3857,0.3759,0.3759,0.379,0.3945,0.3934,0.3946,0.3846,0.3848,0.385,0.3944,0,0.3371,0.3402,0.3429,0.347,0.349,0.3533,0.3582,0.363,0.3678,0.3737,0.376,0.3812,0.3778,0.3804,0.3829,0.3861,0.3892,0.3834,0.3885,0.3887,0.3865,0.3961,0.3617,0.3672,0.3956,0.3958,0.396,0,0.3375,0.3398,0.343,0.3484,0.3499,0.3531,0.3615,0.3666,0.3762,0.3803,0.3861,0.3888,0.3953,0.3911,0.3987,0.3952,0.3957,0.3968,0.3971,0.395,0.3899,0.3655,0.3683,0.398,0.3978,0.3977,0.3975,0,0.3344,0.3397,0.3418,0.3436,0.3506,0.3533,0.3582,0.3679,0.3741,0.386,0.3922,0.3988,0.404,0.4062,0.4083,0.4046,0.4164,0.4109,0.4101,0.4099,0.3813,0.3783,0.416,0.416,0.416,0.416,0.416,0,0.3339,0.3355,0.3401,0.3412,0.3452,0.3512,0.3584,0.3657,0.3781,0.3859,0.395,0.4028,0.4082,0.4146,0.4137,0.4176,0.4205,0.4141,0.4136,0.3826,0.3798,0.406,0.4047,0.4163,0.4163,0.4162,0.4161,0,0.3296,0.3329,0.3352,0.3414,0.3434,0.3462,0.3572,0.363,0.3767,0.388,0.3925,0.4085,0.4185,0.423,0.4294,0.4256,0.4285,0.4278,0.3922,0.3875,0.4179,0.4168,0.4294,0.4294,0.4295,0.4295,0.4296,0,0.3276,0.3282,0.3331,0.334,0.3364,0.342,0.3461,0.3601,0.3676,0.3898,0.3945,0.4113,0.421,0.4337,0.428,0.4291,0.4336,0.3993,0.3867,0.4218,0.42,0.4188,0.4176,0.35,0.3493,0.3488,0.3484,0,0.3235,0.3249,0.3262,0.3284,0.3311,0.3346,0.3423,0.3481,0.3649,0.377,0.3938,0.4054,0.4184,0.4067,0.4107,0.4054,0.397,0.3898,0.4347,0.3544,0.3484,0.3462,0.3473,0.344,0.3444,0.3447,0.345,0.3452,0.3195,0.3187,0.3201,0.3212,0.3236,0.3249,0.3249,0.3338,0.3443,0.3548,0.3768,0.3805,0.3856,0.3759,0.3645,0.3536,0.3814,0.3623,0.3631,0.3646,0.3563,0.3509,0.3453,0.3458,0.3461,0.3465,0.3468,0,0.3115,0.3121,0.3128,0.3118,0.3078,0.3148,0.3196,0.314,0.3178,0.3313,0.3418,0.3179,0.3154,0.3184,0.2956,0.299,0.2874,0.2868,0.2662,0.2714,0.2758,0.262,0.2265,0.2261,0.2257,0.2253,0,0,0.3076,0.3035,0.303,0.2944,0.2944,0.2851,0.2847,0.2792,0.282,0.2776,0.2768,0.3003,0.3133,0.2644,0.2601,0.2391,0.2519,0.2298,0.3276,0.3089,0.3127,0.3228,0.3082,0,0,0,0,0]},{"header":{"parameterUnit":"m.s-1","parameterCategory":2,"la1":30.2991,"la2":30.254,"lo1":-89.0895,"lo2":-89.0444,"dy":0.0017,"dx":0.0017,"nx":28,"ny":28,"refTime":"2025-03-09T09:00:00:Z","depth":"2","parameterNumber":3,"parameterNumberName":"V-component_of_CURRENTS"},"data":[0,0,0,0,0,0,0,0,0,0,0,0,0,0,0,0,0,0,0,0,0,0,0,0,0,0,0,0,0,0,0,0,0,0,0,0,0,0,0,0,0,0,0,0,0,0,0,0,0,0,0,0,0,0,0,0,0,0,0.0314,0.0314,0,0.0267,0.0266,0.0265,0.0224,0.0224,0.0224,0.0224,0.0153,0.0152,0.015,0,0,0,0,0,0,0,0,0,0,0,0,0,0.0295,0.0296,0.0314,0.0314,0.0313,0.0267,0.0266,0.0265,0.0225,0.0224,0.0224,0.0223,0.0154,0.0152,0.015,0,0,0,0,0,0,0,0,0,0,0,0,0,0.028,0.0296,0.0314,0.0289,0.0286,0.0267,0.0266,0.0265,0.0225,0.0224,0.0224,0.0223,0.0155,0.0152,0.015,0.0144,0,0,0.0143,0.0142,0,0,0,0,0,0,0,0,0.0281,0.028,0.0293,0.029,0.0288,0.0253,0.0234,0.0224,0.0225,0.0246,0.0224,0.0223,0.0186,0.0181,0.0171,0.0141,0.0138,0.0142,0.0141,0.014,0.0139,0,0,0,0,0,0,0,0.0282,0.0282,0.0293,0.0293,0.0289,0.0255,0.0252,0.0231,0.0217,0.0244,0.0241,0.0239,0.0184,0.0173,0.0169,0.0136,0.0142,0.014,0.0139,0.0138,0.0093,0.0093,0,0,0,0,0,0,0.0296,0.0283,0.0295,0.0292,0.0285,0.0256,0.0253,0.0263,0.0218,0.0211,0.024,0.0238,0.0178,0.0172,0.0166,0.0171,0.014,0.0138,0.0136,0.0092,0.0093,0.0093,0,0,0,0,0,0,0.0296,0.0298,0.0297,0.0287,0.0285,0.0257,0.0268,0.0262,0.0255,0.0215,0.0208,0.0239,0.0177,0.017,0.0156,0.0168,0.0137,0.0134,0.0092,0.0092,0.0093,0.0172,0,0,0,0,0,0,0.0296,0.0299,0.0307,0.0289,0.0286,0.0299,0.0268,0.0262,0.0255,0.0252,0.0212,0.0205,0.0176,0.016,0.0153,0.0164,0.0133,0.0092,0.0092,0.0093,0.0169,0.0175,0.018,0,0,0,0,0,0.0296,0.0318,0.0309,0.031,0.0301,0.03,0.0295,0.0272,0.0256,0.0261,0.0232,0.0206,0.0157,0.0158,0.0151,0.0161,0.0092,0.0092,0.0093,0.0167,0.0174,0.018,0,0,0,0,0,0,0.0313,0.0316,0.0305,0.0326,0.0317,0.0294,0.0295,0.0279,0.026,0.0254,0.0214,0.0205,0.0195,0.0166,0.0168,0.0147,0.0118,0.0118,0.0177,0.0184,0.0189,0.0213,0.0131,0,0,0,0,0,0.0322,0.034,0.0331,0.0345,0.0345,0.032,0.0314,0.0301,0.0282,0.0273,0.0246,0.0214,0.0191,0.018,0.0154,0.0147,0.0109,0.0146,0.0151,0.0156,0.0169,0.0119,0.0121,0.0095,0.0095,0.0095,0,0,0.0332,0.0335,0.0344,0.035,0.0338,0.0355,0.0316,0.0316,0.0328,0.0269,0.0272,0.0234,0.0193,0.0184,0.0177,0.0163,0.0143,0.0157,0.0162,0.0172,0.0119,0.0122,0.0124,0.0095,0.0095,0.0095,0,0,0.0366,0.0364,0.0392,0.0394,0.039,0.0379,0.0384,0.0367,0.0355,0.0351,0.0311,0.0283,0.025,0.0224,0.0206,0.0226,0.0173,0.0213,0.0263,0.0214,0.0216,0.0217,0.0171,0.0168,0.0217,0.0217,0.0217,0,0.0375,0.0415,0.0397,0.0426,0.0439,0.0398,0.0433,0.0417,0.0396,0.0393,0.0364,0.0309,0.0271,0.0261,0.0265,0.024,0.0204,0.0244,0.0222,0.0223,0.0223,0.0175,0.017,0.0221,0.0221,0.022,0.022,0,0.0435,0.0464,0.0481,0.0509,0.0517,0.0539,0.0524,0.052,0.0495,0.0477,0.0455,0.0392,0.0363,0.0339,0.0309,0.0295,0.0265,0.0236,0.021,0.0231,0.0178,0.0172,0.0227,0.0225,0.0224,0.0223,0,0,0.0464,0.0516,0.0522,0.0557,0.0568,0.0586,0.0601,0.0609,0.0627,0.0573,0.0584,0.0521,0.0477,0.0453,0.0399,0.0352,0.0314,0.0302,0.0297,0.0265,0.0206,0.018,0.0169,0.0279,0.0278,0.0278,0.017,0,0.0518,0.06,0.0606,0.0679,0.0725,0.0703,0.0727,0.0722,0.0702,0.0698,0.0614,0.0601,0.0523,0.0509,0.0449,0.0354,0.0301,0.0346,0.0184,0.0179,0.016,0.0163,0.0188,0.0094,0.0163,0.0162,0.0161,0,0.0578,0.0632,0.0719,0.0785,0.0801,0.083,0.0867,0.0886,0.086,0.0843,0.0798,0.0731,0.0661,0.0586,0.0425,0.0457,0.0345,0.0256,0.0249,0.0195,0.0141,0.0083,0.0079,0.015,0.0151,0.0152,0.0152,0,0.0626,0.0709,0.0787,0.0812,0.0873,0.0899,0.0925,0.0928,0.097,0.0937,0.0953,0.084,0.0798,0.0638,0.0449,0.0438,0.0262,0.0221,0.0087,0.0083,0.0059,0.0055,0.0104,0.0105,0.0105,0.0105,0.0105,0,0.0692,0.0753,0.0817,0.0863,0.0958,0.0968,0.1056,0.1058,0.1087,0.1151,0.1035,0.1049,0.0808,0.0676,0.0487,0.0272,0.0286,0.01,0.0055,0.0087,0.0087,0.01,0.0101,0.0101,0.0102,0.0103,0.0103,0,0.0737,0.0777,0.0875,0.0955,0.0987,0.1055,0.1163,0.1231,0.1234,0.131,0.1307,0.1208,0.1037,0.0783,0.0523,0.0339,0.0125,0.0043,0.0097,0.0061,-0.0033,-0.0027,-0.0116,-0.0118,-0.0119,-0.0121,-0.0122,0,0.0769,0.0825,0.0947,0.1019,0.1059,0.1166,0.1251,0.1303,0.1395,0.1419,0.1471,0.1324,0.1267,0.087,0.05,0.0155,0.0115,-0.005,-0.0071,-0.002,-0.0055,-0.0046,-0.0038,-0.0078,-0.0078,-0.0079,-0.0079,0,0.0832,0.0869,0.0955,0.1108,0.1212,0.1351,0.1475,0.1574,0.164,0.1705,0.1764,0.1714,0.1324,0.0977,0.0479,0.0245,0.0003,-0.0071,-0.0037,-0.0018,0.0009,-0.0023,-0.0015,-0.0084,-0.0083,-0.0083,-0.0083,-0.0082,0.0872,0.0944,0.1059,0.1208,0.134,0.1517,0.1657,0.1791,0.1952,0.2055,0.1987,0.1915,0.1486,0.0864,0.0426,-0.0043,-0.001,-0.0165,-0.0161,-0.0157,-0.0126,-0.0102,-0.021,-0.021,-0.021,-0.021,-0.021,0,0.0929,0.1019,0.1156,0.1338,0.1498,0.1564,0.1802,0.194,0.2145,0.2205,0.2248,0.1845,0.1429,0.0932,0.0239,-0.0158,-0.0188,-0.0286,-0.0234,-0.0226,-0.0219,-0.019,-0.0293,-0.0294,-0.0296,-0.0297,0,0,0.0961,0.1095,0.1174,0.1439,0.1579,0.1817,0.1971,0.2163,0.2275,0.2361,0.2311,0.2181,0.158,0.1064,0.0504,0.0106,0.0038,0.0028,0.0139,0.0277,0.0288,-0.0105,-0.0045,0,0,0,0,0]}],[{"header":{"parameterUnit":"m.s-1","parameterCategory":2,"la1":30.2991,"la2":30.254,"lo1":-89.0895,"lo2":-89.0444,"dy":0.0017,"dx":0.0017,"nx":28,"ny":28,"refTime":"2025-03-09T09:00:00:Z","depth":"4","parameterNumber":2,"parameterNumberName":"U-component_of_CURRENTS"},"data":[0,0,0,0,0,0,0,0,0,0,0,0,0,0,0,0,0,0,0,0,0,0,0,0,0,0,0,0,0,0,0,0,0,0,0,0,0,0,0,0,0,0,0,0,0,0,0,0,0,0,0,0,0,0,0,0,0,0,0.2067,0.2068,0,0.2142,0.2143,0.2144,0.2206,0.2207,0.2208,0.2209,0.2297,0.2298,0.23,0,0,0,0,0,0,0,0,0,0,0,0,0,0.1977,0.1978,0.2067,0.2068,0.2069,0.2142,0.2143,0.2144,0.2206,0.2207,0.2208,0.2209,0.2296,0.2298,0.23,0,0,0,0,0,0,0,0,0,0,0,0,0,0.2028,0.1978,0.2067,0.2111,0.2115,0.2142,0.2143,0.2144,0.2206,0.2207,0.2209,0.221,0.2296,0.2298,0.23,0.2289,0,0,0.2307,0.2308,0,0,0,0,0,0,0,0,0.2025,0.2031,0.2103,0.2108,0.2113,0.2168,0.2144,0.2194,0.2206,0.2169,0.2209,0.221,0.2255,0.2261,0.2269,0.2293,0.2297,0.2308,0.2309,0.231,0.2311,0,0,0,0,0,0,0,0.2022,0.2029,0.2095,0.2104,0.211,0.2127,0.2135,0.2153,0.2203,0.2173,0.2178,0.2189,0.2258,0.2267,0.2272,0.2298,0.2307,0.231,0.2311,0.2312,0.2457,0.246,0,0,0,0,0,0,0.2015,0.2025,0.2092,0.2097,0.2074,0.2127,0.2137,0.2147,0.2203,0.2213,0.2188,0.2192,0.2262,0.2269,0.2275,0.239,0.231,0.2312,0.2313,0.2455,0.2458,0.2461,0,0,0,0,0,0,0.2013,0.2021,0.2089,0.2065,0.2075,0.2128,0.2139,0.2148,0.2204,0.2214,0.2225,0.224,0.2263,0.2272,0.2338,0.2389,0.2313,0.2315,0.2452,0.2456,0.2459,0.2539,0,0,0,0,0,0,0.201,0.2019,0.2048,0.2064,0.2076,0.2134,0.2138,0.2149,0.2207,0.2214,0.2261,0.2268,0.2265,0.2335,0.2341,0.2391,0.2317,0.2449,0.2454,0.2458,0.2534,0.2545,0.2556,0,0,0,0,0,0.2007,0.2031,0.2049,0.2059,0.2106,0.2136,0.2144,0.2184,0.2209,0.2238,0.2279,0.2269,0.2369,0.2339,0.2345,0.2397,0.2447,0.2452,0.2458,0.2529,0.2543,0.2555,0,0,0,0,0,0,0.2008,0.204,0.206,0.2095,0.2129,0.2148,0.2186,0.221,0.2264,0.2289,0.2297,0.2307,0.2386,0.2381,0.2348,0.2454,0.2408,0.2415,0.246,0.2473,0.2484,0.2489,0.2319,0,0,0,0,0,0.202,0.2052,0.2079,0.2114,0.2135,0.2171,0.2198,0.2226,0.2263,0.2291,0.2325,0.2366,0.2404,0.2432,0.2461,0.2515,0.2514,0.2555,0.2566,0.2575,0.2585,0.2626,0.2641,0.2479,0.2479,0.2479,0,0,0.2032,0.2055,0.2076,0.2119,0.2151,0.2187,0.2192,0.2247,0.2292,0.229,0.2379,0.2409,0.2429,0.2494,0.2529,0.2503,0.2623,0.2582,0.259,0.2595,0.2633,0.2649,0.2663,0.2483,0.2482,0.2482,0,0,0.2053,0.2094,0.2122,0.2154,0.2211,0.2233,0.226,0.2308,0.2352,0.2425,0.2443,0.2506,0.2563,0.2588,0.2605,0.2694,0.2681,0.2712,0.2771,0.2811,0.2824,0.2836,0.2859,0.2872,0.2716,0.2716,0.2716,0,0.2072,0.2107,0.2138,0.2172,0.2209,0.2259,0.23,0.2345,0.2416,0.2457,0.247,0.2584,0.2605,0.2679,0.2717,0.2719,0.2735,0.2716,0.2824,0.2836,0.2846,0.2867,0.288,0.272,0.272,0.2719,0.2719,0,0.2095,0.2146,0.2169,0.223,0.2272,0.2322,0.2377,0.2444,0.2506,0.2546,0.2653,0.269,0.2756,0.2778,0.2779,0.2871,0.2857,0.2833,0.2786,0.2867,0.2884,0.2897,0.2727,0.2725,0.2724,0.2723,0,0,0.2079,0.2169,0.2184,0.2223,0.2312,0.2341,0.2434,0.2514,0.2589,0.2666,0.2756,0.2833,0.2868,0.2891,0.2909,0.2949,0.3041,0.2935,0.2935,0.295,0.3132,0.2933,0.2926,0.3041,0.3043,0.3046,0.3114,0,0.2097,0.2161,0.221,0.2293,0.233,0.2411,0.2489,0.2574,0.2662,0.2763,0.2823,0.2919,0.2906,0.2965,0.3003,0.3042,0.3078,0.3024,0.3058,0.3059,0.2865,0.2935,0.3054,0.3123,0.3126,0.3128,0.313,0,0.2095,0.2143,0.2219,0.2324,0.2352,0.2419,0.2557,0.2636,0.2777,0.2851,0.2952,0.3007,0.3106,0.3078,0.317,0.3143,0.3151,0.3161,0.3163,0.2955,0.2882,0.3026,0.3151,0.315,0.3148,0.3147,0.3145,0,0.2039,0.2147,0.2211,0.2246,0.2373,0.2443,0.2529,0.2671,0.2757,0.2929,0.301,0.3117,0.3198,0.3231,0.326,0.3237,0.3338,0.3297,0.3118,0.3105,0.3227,0.3214,0.3351,0.3351,0.3351,0.3351,0.3351,0,0.201,0.2067,0.22,0.2232,0.2328,0.2431,0.256,0.2666,0.2831,0.2923,0.306,0.3135,0.3246,0.3307,0.3305,0.3246,0.3372,0.3139,0.3111,0.326,0.325,0.3235,0.3221,0.3353,0.3353,0.3352,0.3352,0,0.1929,0.2019,0.2098,0.2247,0.2303,0.2376,0.2566,0.2646,0.2827,0.2957,0.302,0.319,0.3264,0.333,0.3397,0.3285,0.3263,0.3207,0.3376,0.3355,0.2993,0.2983,0.301,0.3004,0.2999,0.2994,0.299,0,0.1888,0.1923,0.2088,0.2138,0.2217,0.2348,0.2428,0.2625,0.2707,0.2947,0.2981,0.3142,0.3218,0.3151,0.3238,0.3219,0.3172,0.3135,0.3045,0.2989,0.2961,0.2959,0.2956,0.2982,0.298,0.2979,0.2977,0,0.1806,0.1887,0.1949,0.2056,0.2151,0.2238,0.2374,0.2418,0.2627,0.2813,0.2871,0.291,0.2986,0.302,0.3034,0.3009,0.3145,0.3077,0.3087,0.3002,0.2955,0.2931,0.2935,0.2958,0.2961,0.2963,0.2964,0,0.1751,0.1771,0.1867,0.1942,0.205,0.2088,0.218,0.2263,0.2369,0.2624,0.2633,0.2794,0.2955,0.2912,0.2922,0.289,0.2834,0.2716,0.2744,0.2766,0.2651,0.2552,0.2416,0,0,0,0,0,0.1677,0.1679,0.174,0.1802,0.19,0.1963,0.2116,0.2211,0.2409,0.2381,0.2503,0.2557,0.2587,0.2676,0.2591,0.2808,0.2843,0.2695,0.2723,0.2854,0.2876,0.2761,0,0,0,0,0,0,0.1623,0.1673,0.1686,0.1668,0.1683,0.1769,0.1857,0.1993,0.1993,0.2203,0.2236,0.239,0.2463,0.2602,0.2537,0.2561,0.2521,0.2802,0.2794,0.2842,0.2861,0.2879,0.2768,0,0,0,0,0]},{"header":{"parameterUnit":"m.s-1","parameterCategory":2,"la1":30.2991,"la2":30.254,"lo1":-89.0895,"lo2":-89.0444,"dy":0.0017,"dx":0.0017,"nx":28,"ny":28,"refTime":"2025-03-09T09:00:00:Z","depth":"4","parameterNumber":3,"parameterNumberName":"V-component_of_CURRENTS"},"data":[0,0,0,0,0,0,0,0,0,0,0,0,0,0,0,0,0,0,0,0,0,0,0,0,0,0,0,0,0,0,0,0,0,0,0,0,0,0,0,0,0,0,0,0,0,0,0,0,0,0,0,0,0,0,0,0,0,0,0.0296,0.0296,0,0.0269,0.0268,0.0268,0.0248,0.0248,0.0248,0.0248,0.0203,0.0202,0.0201,0,0,0,0,0,0,0,0,0,0,0,0,0,0.0279,0.0279,0.0296,0.0296,0.0295,0.0269,0.0268,0.0268,0.0248,0.0248,0.0248,0.0248,0.0203,0.0202,0.0201,0,0,0,0,0,0,0,0,0,0,0,0,0,0.0271,0.0279,0.0296,0.0283,0.0282,0.0269,0.0268,0.0268,0.0248,0.0248,0.0248,0.0248,0.0204,0.0202,0.02,0.0192,0,0,0.0195,0.0195,0,0,0,0,0,0,0,0,0.0272,0.0272,0.0285,0.0284,0.0282,0.0263,0.0246,0.0242,0.0248,0.026,0.0248,0.0248,0.0222,0.0219,0.0213,0.019,0.0188,0.0195,0.0194,0.0193,0.0193,0,0,0,0,0,0,0,0.0273,0.0273,0.0284,0.0285,0.0283,0.0261,0.026,0.0245,0.0241,0.0259,0.0258,0.0256,0.0221,0.0214,0.0212,0.0187,0.0195,0.0194,0.0193,0.0192,0.0157,0.0157,0,0,0,0,0,0,0.0281,0.0274,0.0285,0.0283,0.0278,0.0262,0.0261,0.0268,0.0241,0.0238,0.0257,0.0256,0.0217,0.0214,0.021,0.0216,0.0193,0.0192,0.0191,0.0157,0.0157,0.0157,0,0,0,0,0,0,0.0281,0.0283,0.0286,0.0278,0.0277,0.0263,0.0271,0.0268,0.0268,0.024,0.0236,0.026,0.0217,0.0212,0.0205,0.0214,0.0191,0.0189,0.0157,0.0157,0.0157,0.0218,0,0,0,0,0,0,0.0281,0.0283,0.0292,0.0279,0.0278,0.0289,0.0271,0.0267,0.0267,0.0266,0.0242,0.0237,0.0217,0.0207,0.0203,0.0211,0.0188,0.0157,0.0157,0.0157,0.0216,0.022,0.0224,0,0,0,0,0,0.028,0.0297,0.0293,0.0294,0.0291,0.029,0.0288,0.0275,0.0268,0.0273,0.0256,0.0238,0.0205,0.0207,0.0201,0.0209,0.0156,0.0157,0.0157,0.0214,0.0219,0.0223,0,0,0,0,0,0,0.0293,0.0296,0.0291,0.0308,0.0303,0.0287,0.0291,0.0282,0.0272,0.0271,0.0243,0.0238,0.0232,0.0211,0.0213,0.0197,0.0176,0.0175,0.0221,0.0226,0.0229,0.0247,0.0187,0,0,0,0,0,0.03,0.0315,0.0309,0.0322,0.0322,0.0307,0.0305,0.0298,0.0287,0.0283,0.0266,0.0245,0.0228,0.0221,0.0202,0.0197,0.0164,0.0196,0.02,0.0203,0.0213,0.0167,0.0168,0.0158,0.0158,0.0158,0,0,0.0308,0.0312,0.032,0.0325,0.0319,0.0333,0.0306,0.031,0.032,0.0279,0.0287,0.026,0.0229,0.0224,0.0219,0.0209,0.0188,0.0204,0.0207,0.0215,0.0167,0.0168,0.0169,0.0158,0.0158,0.0158,0,0,0.0333,0.0335,0.0356,0.036,0.0359,0.0352,0.0358,0.0348,0.0343,0.0344,0.0315,0.0296,0.0274,0.0253,0.0239,0.0253,0.021,0.0244,0.0281,0.0236,0.0237,0.0237,0.0194,0.019,0.0246,0.0246,0.0247,0,0.0341,0.0372,0.0361,0.0382,0.0394,0.0367,0.0394,0.0385,0.0374,0.0374,0.0356,0.0316,0.0288,0.0277,0.0282,0.0263,0.0231,0.0268,0.0242,0.0241,0.0241,0.0197,0.0192,0.0249,0.0249,0.0249,0.0248,0,0.0383,0.0408,0.0421,0.0444,0.0452,0.047,0.0461,0.0462,0.045,0.0438,0.0423,0.0376,0.0356,0.0337,0.0316,0.0299,0.0276,0.0253,0.0234,0.0245,0.0198,0.0192,0.0254,0.0253,0.0252,0.0251,0,0,0.0401,0.0444,0.045,0.0479,0.0491,0.0505,0.052,0.0529,0.0545,0.0508,0.0518,0.047,0.044,0.0421,0.038,0.0338,0.03,0.0301,0.0297,0.0266,0.0201,0.0179,0.0169,0.0272,0.0272,0.0271,0.017,0,0.0438,0.05,0.0509,0.0568,0.0601,0.0592,0.0613,0.0614,0.0603,0.0602,0.0538,0.0531,0.0473,0.0466,0.0413,0.0334,0.0286,0.0329,0.0189,0.0185,0.0169,0.0162,0.0269,0.0165,0.0164,0.0162,0.0162,0,0.0478,0.0519,0.0589,0.0646,0.0659,0.0688,0.0723,0.0741,0.0725,0.0715,0.0681,0.0631,0.0572,0.0518,0.0378,0.0409,0.0316,0.0241,0.0235,0.0191,0.015,0.0149,0.0149,0.015,0.0151,0.0152,0.0153,0,0.0505,0.0574,0.0637,0.0658,0.0713,0.0742,0.0769,0.0777,0.0812,0.0791,0.0802,0.0711,0.0678,0.0545,0.0389,0.0386,0.0224,0.0197,0.0085,0.0081,0.0106,0.0107,0.0095,0.0095,0.0095,0.0095,0.0096,0,0.0545,0.0596,0.066,0.0697,0.0779,0.0795,0.0874,0.088,0.0907,0.0953,0.0869,0.0866,0.0684,0.0567,0.0413,0.0229,0.0238,0.0091,0.0054,0.0133,0.0138,0.0101,0.0103,0.0092,0.0092,0.0093,0.0094,0,0.0567,0.0607,0.0688,0.0763,0.0798,0.0857,0.0961,0.1014,0.1024,0.1077,0.1076,0.0985,0.0831,0.0632,0.0413,0.0275,0.0093,0.0024,0.0128,0.0098,-0.0026,-0.0019,-0.0107,-0.0109,-0.011,-0.0111,-0.0112,0,0.0583,0.0627,0.0741,0.0803,0.0846,0.0945,0.1019,0.1072,0.1134,0.1147,0.117,0.1046,0.0953,0.0634,0.0414,0.0109,0.0061,-0.0038,-0.0039,-0.0019,-0.0046,-0.0038,-0.003,-0.0115,-0.0115,-0.0115,-0.0116,0,0.0613,0.0655,0.0725,0.0857,0.0951,0.1067,0.117,0.1224,0.1279,0.1287,0.1248,0.1079,0.0901,0.0642,0.0402,0.0182,0.0022,-0.0054,-0.0053,-0.0054,-0.0029,-0.0053,-0.0043,-0.012,-0.012,-0.0119,-0.0119,0,0.0635,0.0688,0.0786,0.0904,0.1029,0.1148,0.1205,0.1274,0.1332,0.1334,0.1317,0.1119,0.101,0.068,0.046,0.0237,0.0176,0.0095,0.0088,0.009,0.0169,0.0231,0.0189,0,0,0,0,0,0.0653,0.0719,0.0827,0.0959,0.1086,0.1167,0.129,0.1336,0.1383,0.1366,0.1346,0.1177,0.0851,0.0716,0.0491,0.0417,0.0127,0.0142,0.0028,-0.0147,-0.0142,-0.0086,0,0,0,0,0,0,0.0665,0.0763,0.0824,0.0986,0.1086,0.1234,0.1318,0.1353,0.1347,0.135,0.1188,0.1106,0.0797,0.0981,0.0483,0.0416,0.0307,-0.0005,-0.0011,-0.015,-0.0145,-0.0141,-0.0082,0,0,0,0,0]}]]